Weather History for Faith, SD

Change the Weather History Date:

Monday, July 14, 2014

  Actual Average Record
Temperature  
Mean Temperature 60 °F 73 °F  
Max Temperature 71 °F 86 °F 102 °F (2006)
Min Temperature 48 °F 59 °F 48 °F (2014)
Degree Days  
Heating Degree Days 5 0  
Month to date heating degree days 11 5  
Since 1 June heating degree days 116 95  
Since 1 July heating degree days 11 5  
Cooling Degree Days 0 8  
Month to date cooling degree days 61 100  
Year to date cooling degree days 113 200  
Since 1 June cooling degree days 83 188  
Growing Degree Days 9 (Base 50)    
Moisture  
Dew Point 46 °F    
Average Humidity 63    
Maximum Humidity 86    
Minimum Humidity 40    
Precipitation  
Precipitation 0.00 in 0.12 in 0.01 in (2001)
Month to date precipitation 0.26 1.54  
Year to date precipitation 10.77 10.93  
Sea Level Pressure  
Sea Level Pressure 30.26 in    
Wind  
Wind Speed 12 mph (North)    
Max Wind Speed 23 mph    
Max Gust Speed 28 mph    
T = Trace of Precipitation, MM = Missing Value Source: NWS Daily Summary

Daily Weather History Graph

Daily Weather History Graph

Search for Another Location

Airport:

Trip Planner

Search our weather history database for the weather conditions in past years. The results will help you decide how hot, cold, wet, or windy it might be!

Date:

Astronomy

Jul. 14, 2014 Rise Set
Actual Time 5:14 AM MDT 8:32 PM MDT
Civil Twilight 4:38 AM MDT 9:08 PM MDT
Nautical Twilight 3:51 AM MDT 9:55 PM MDT
Astronomical Twilight 2:52 AM MDT 10:53 PM MDT
Moon 9:52 PM MDT (7/14) 8:09 AM MDT (7/14)
Length of Visible Light 16h 29m
Length of Day
15h 17m
Waning Gibbous, 92% of the Moon is Illuminated
Jul 14
Waning Gibbous
Jul 18
Last Quarter
Jul 26
New
Aug 3
First Quarter
Aug 10
Full

Hourly Weather History & Observations

Time (MDT) Temp. Dew Point Humidity Pressure Visibility Wind Dir Wind Speed Gust Speed Precip Events Conditions
12:56 AM 53.1 °F 46.0 °F 77% 30.14 in - North 8.1 mph - N/A   Unknown
1:56 AM 52.0 °F 45.0 °F 77% 30.16 in - NNW 8.1 mph - N/A   Unknown
2:56 AM 50.0 °F 44.1 °F 80% 30.17 in - NNW 10.4 mph - N/A   Unknown
3:56 AM 50.0 °F 44.1 °F 80% 30.19 in - NW 8.1 mph - N/A   Unknown
4:56 AM 48.0 °F 44.1 °F 86% 30.21 in - NW 9.2 mph - N/A   Unknown
5:56 AM 48.9 °F 44.1 °F 83% 30.23 in - NNW 9.2 mph - N/A   Unknown
6:56 AM 53.1 °F 46.0 °F 77% 30.25 in - North 12.7 mph - N/A   Unknown
7:56 AM 57.0 °F 46.9 °F 69% 30.27 in - North 11.5 mph - N/A   Unknown
8:56 AM 60.1 °F 46.9 °F 62% 30.29 in - North 15.0 mph - N/A   Unknown
9:56 AM 62.1 °F 46.0 °F 56% 30.30 in - North 13.8 mph 25.3 mph N/A   Unknown
10:56 AM 62.1 °F 46.0 °F 56% 30.30 in - North 16.1 mph - N/A   Unknown
11:56 AM 66.0 °F 46.9 °F 50% 30.31 in - NNW 19.6 mph - N/A   Unknown
12:56 PM 66.9 °F 45.0 °F 45% 30.30 in - North 18.4 mph - N/A   Unknown
1:56 PM 66.0 °F 46.0 °F 48% 30.30 in - NNE 15.0 mph 25.3 mph N/A   Unknown
2:56 PM 66.9 °F 46.0 °F 47% 30.29 in - North 16.1 mph 24.2 mph N/A   Unknown
3:56 PM 70.0 °F 45.0 °F 41% 30.29 in - North 13.8 mph 21.9 mph N/A   Unknown
4:56 PM 70.0 °F 45.0 °F 41% 30.28 in - NNE 17.3 mph - N/A   Unknown
5:56 PM 69.1 °F 45.0 °F 42% 30.28 in - NNE 13.8 mph 19.6 mph N/A   Unknown
6:56 PM 66.9 °F 45.0 °F 45% 30.28 in - NNE 11.5 mph - N/A   Unknown
7:56 PM 63.0 °F 46.9 °F 56% 30.28 in - NNE 6.9 mph - N/A   Unknown
8:56 PM 57.0 °F 46.9 °F 69% 30.28 in - NNE 9.2 mph - N/A   Unknown
9:56 PM 55.0 °F 46.9 °F 74% 30.29 in - NE 5.8 mph - N/A   Unknown
10:56 PM 52.0 °F 46.0 °F 80% 30.31 in - East 8.1 mph - N/A   Unknown
11:56 PM 53.1 °F 46.9 °F 80% 30.30 in - ESE 6.9 mph - N/A   Unknown